Time,TemperatureF,DewpointF,PressureIn,WindDirection,WindDirectionDegrees,WindSpeedMPH,WindSpeedGustMPH,Humidity,HourlyPrecipIn,Conditions,Clouds,dailyrainin,SoftwareType,DateUTC
2013-12-29 00:04:00,44.0,34.5,29.11,NW,326,3.0,4.0,69,0.00,,,0.00,Wunderground v.1.15,2013-12-29 05:04:00,
2013-12-29 00:09:00,44.0,34.5,29.10,WNW,297,2.0,2.0,69,0.00,,,0.00,Wunderground v.1.15,2013-12-29 05:09:00,
2013-12-29 00:19:00,44.1,34.6,29.10,WNW,290,2.0,2.0,69,0.00,,,0.00,Wunderground v.1.15,2013-12-29 05:19:00,
2013-12-29 00:24:00,44.2,34.7,29.10,WNW,287,2.0,2.0,69,0.00,,,0.00,Wunderground v.1.15,2013-12-29 05:24:00,
2013-12-29 00:29:00,44.3,34.8,29.09,WNW,300,2.0,2.0,69,0.00,,,0.00,Wunderground v.1.15,2013-12-29 05:29:00,
2013-12-29 00:34:00,44.4,34.5,29.09,West,279,3.0,4.0,68,0.00,,,0.00,Wunderground v.1.15,2013-12-29 05:34:00,
2013-12-29 00:39:00,44.5,34.6,29.08,NW,306,3.0,3.0,68,0.00,,,0.00,Wunderground v.1.15,2013-12-29 05:39:00,
2013-12-29 00:44:00,44.5,34.6,29.08,NW,322,2.0,3.0,68,0.00,,,0.00,Wunderground v.1.15,2013-12-29 05:44:00,
2013-12-29 00:49:00,44.4,34.9,29.08,NNW,337,2.0,2.0,69,0.00,,,0.00,Wunderground v.1.15,2013-12-29 05:49:00,
2013-12-29 00:54:00,44.5,34.6,29.08,West,269,2.0,4.0,68,0.00,,,0.00,Wunderground v.1.15,2013-12-29 05:54:00,
2013-12-29 01:00:00,44.5,34.6,29.09,WNW,296,2.0,2.0,68,0.00,,,0.00,Wunderground v.1.15,2013-12-29 06:00:00,
2013-12-29 01:10:00,44.6,34.7,29.09,WNW,284,2.0,2.0,68,0.00,,,0.00,Wunderground v.1.15,2013-12-29 06:10:00,
2013-12-29 01:15:00,44.5,34.6,29.09,NW,311,2.0,12.0,68,0.00,,,0.00,Wunderground v.1.15,2013-12-29 06:15:00,
2013-12-29 01:20:00,44.5,34.6,29.08,WNW,288,2.0,12.0,68,0.00,,,0.00,Wunderground v.1.15,2013-12-29 06:20:00,
2013-12-29 01:25:00,44.6,34.7,29.08,West,278,3.0,12.0,68,0.00,,,0.00,Wunderground v.1.15,2013-12-29 06:25:00,
2013-12-29 01:30:00,44.5,34.6,29.08,WNW,296,2.0,2.0,68,0.00,,,0.00,Wunderground v.1.15,2013-12-29 06:30:00,
2013-12-29 01:35:00,44.4,34.5,29.08,WNW,287,2.0,12.0,68,0.00,,,0.00,Wunderground v.1.15,2013-12-29 06:35:00,
2013-12-29 01:40:00,44.4,34.5,29.08,NW,314,2.0,12.0,68,0.00,,,0.00,Wunderground v.1.15,2013-12-29 06:40:00,
2013-12-29 01:45:00,44.3,34.4,29.08,WNW,286,2.0,12.0,68,0.00,,,0.00,Wunderground v.1.15,2013-12-29 06:45:00,
2013-12-29 01:55:00,44.2,34.3,29.08,NW,305,2.0,12.0,68,0.00,,,0.00,Wunderground v.1.15,2013-12-29 06:55:00,
2013-12-29 02:00:00,44.2,34.3,29.08,WNW,300,2.0,2.0,68,0.00,,,0.00,Wunderground v.1.15,2013-12-29 07:00:00,
2013-12-29 02:05:00,44.3,34.4,29.08,WNW,285,2.0,12.0,68,0.00,,,0.00,Wunderground v.1.15,2013-12-29 07:05:00,
2013-12-29 02:10:00,44.2,34.3,29.08,WNW,302,2.0,12.0,68,0.00,,,0.00,Wunderground v.1.15,2013-12-29 07:10:00,
2013-12-29 02:15:00,44.2,34.3,29.08,WNW,288,2.0,12.0,68,0.00,,,0.00,Wunderground v.1.15,2013-12-29 07:15:00,
2013-12-29 02:25:00,44.3,34.4,29.08,West,281,3.0,12.0,68,0.00,,,0.00,Wunderground v.1.15,2013-12-29 07:25:00,
2013-12-29 02:30:00,44.2,34.3,29.09,WNW,294,3.0,3.0,68,0.00,,,0.00,Wunderground v.1.15,2013-12-29 07:30:00,
2013-12-29 02:35:00,44.2,34.3,29.09,WNW,301,3.0,5.0,68,0.00,,,0.00,Wunderground v.1.15,2013-12-29 07:35:00,
2013-12-29 02:40:00,44.1,34.2,29.09,WNW,296,4.0,4.0,68,0.00,,,0.00,Wunderground v.1.15,2013-12-29 07:40:00,
2013-12-29 02:45:00,44.1,34.2,29.09,NNW,342,4.0,12.0,68,0.00,,,0.00,Wunderground v.1.15,2013-12-29 07:45:00,
2013-12-29 02:50:00,44.2,33.9,29.09,NW,311,3.0,3.0,67,0.00,,,0.00,Wunderground v.1.15,2013-12-29 07:50:00,
2013-12-29 03:00:00,44.3,34.0,29.09,WNW,292,3.0,12.0,67,0.00,,,0.00,Wunderground v.1.15,2013-12-29 08:00:00,
2013-12-29 03:05:00,44.3,34.0,29.08,WNW,300,3.0,12.0,67,0.00,,,0.00,Wunderground v.1.15,2013-12-29 08:05:00,
2013-12-29 03:10:00,44.3,34.0,29.08,NW,316,3.0,12.0,67,0.00,,,0.00,Wunderground v.1.15,2013-12-29 08:10:00,
2013-12-29 03:15:00,44.3,34.0,29.08,WNW,288,3.0,12.0,67,0.00,,,0.00,Wunderground v.1.15,2013-12-29 08:15:00,
2013-12-29 03:20:00,44.2,33.9,29.08,West,280,3.0,12.0,67,0.00,,,0.00,Wunderground v.1.15,2013-12-29 08:20:00,
2013-12-29 03:30:00,44.3,34.0,29.08,WNW,297,3.0,3.0,67,0.00,,,0.00,Wunderground v.1.15,2013-12-29 08:30:00,
2013-12-29 03:35:00,44.2,33.6,29.07,WNW,301,3.0,12.0,66,0.00,,,0.00,Wunderground v.1.15,2013-12-29 08:35:00,
2013-12-29 03:40:00,44.1,33.5,29.07,NNW,342,2.0,12.0,66,0.00,,,0.00,Wunderground v.1.15,2013-12-29 08:40:00,
2013-12-29 03:45:00,44.0,33.7,29.07,WNW,295,2.0,12.0,67,0.00,,,0.00,Wunderground v.1.15,2013-12-29 08:45:00,
2013-12-29 03:50:00,44.0,33.7,29.07,WNW,294,2.0,12.0,67,0.00,,,0.00,Wunderground v.1.15,2013-12-29 08:50:00,
2013-12-29 03:55:00,43.9,33.3,29.07,WNW,294,2.0,12.0,66,0.00,,,0.00,Wunderground v.1.15,2013-12-29 08:55:00,
2013-12-29 04:05:00,43.8,33.2,29.07,WNW,296,1.0,12.0,66,0.00,,,0.00,Wunderground v.1.15,2013-12-29 09:05:00,
2013-12-29 04:10:00,43.8,33.2,29.06,WNW,297,1.0,12.0,66,0.00,,,0.00,Wunderground v.1.15,2013-12-29 09:10:00,
2013-12-29 04:15:00,43.8,33.2,29.06,West,281,2.0,12.0,66,0.00,,,0.00,Wunderground v.1.15,2013-12-29 09:15:00,
2013-12-29 04:20:00,43.7,33.1,29.06,WNW,302,2.0,12.0,66,0.00,,,0.00,Wunderground v.1.15,2013-12-29 09:20:00,
2013-12-29 04:25:00,43.7,33.5,29.05,NW,312,2.0,12.0,67,0.00,,,0.00,Wunderground v.1.15,2013-12-29 09:25:00,
2013-12-29 04:35:00,43.5,33.3,29.05,WNW,292,1.0,12.0,67,0.00,,,0.00,Wunderground v.1.15,2013-12-29 09:35:00,
2013-12-29 04:40:00,43.5,33.3,29.04,WNW,300,1.0,12.0,67,0.00,,,0.00,Wunderground v.1.15,2013-12-29 09:40:00,
2013-12-29 04:45:00,43.4,33.2,29.04,NNW,329,2.0,12.0,67,0.00,,,0.00,Wunderground v.1.15,2013-12-29 09:45:00,
2013-12-29 04:50:00,43.3,33.1,29.04,West,259,2.0,12.0,67,0.00,,,0.00,Wunderground v.1.15,2013-12-29 09:50:00,
2013-12-29 04:55:00,43.3,33.1,29.03,WNW,296,1.0,12.0,67,0.00,,,0.00,Wunderground v.1.15,2013-12-29 09:55:00,
2013-12-29 05:00:00,43.2,33.0,29.03,West,261,2.0,12.0,67,0.00,,,0.00,Wunderground v.1.15,2013-12-29 10:00:00,
2013-12-29 05:05:00,43.2,33.3,29.03,WNW,296,1.0,12.0,68,0.00,,,0.00,Wunderground v.1.15,2013-12-29 10:05:00,
2013-12-29 05:10:00,43.2,33.0,29.03,WNW,290,2.0,12.0,67,0.00,,,0.00,Wunderground v.1.15,2013-12-29 10:10:00,
2013-12-29 05:15:00,43.2,33.3,29.03,West,269,2.0,12.0,68,0.00,,,0.00,Wunderground v.1.15,2013-12-29 10:15:00,
2013-12-29 05:25:00,43.1,32.9,29.02,West,272,1.0,12.0,67,0.00,,,0.00,Wunderground v.1.15,2013-12-29 10:25:00,
2013-12-29 05:30:00,43.0,33.2,29.02,WNW,288,1.0,1.0,68,0.00,,,0.00,Wunderground v.1.15,2013-12-29 10:30:00,
2013-12-29 05:35:00,43.0,33.2,29.02,WNW,302,1.0,12.0,68,0.00,,,0.00,Wunderground v.1.15,2013-12-29 10:35:00,
2013-12-29 05:40:00,42.9,33.4,29.02,WNW,302,1.0,12.0,69,0.00,,,0.00,Wunderground v.1.15,2013-12-29 10:40:00,
2013-12-29 05:45:00,42.8,33.0,29.02,West,281,1.0,12.0,68,0.00,,,0.00,Wunderground v.1.15,2013-12-29 10:45:00,
2013-12-29 05:50:00,42.8,33.0,29.02,WNW,282,1.0,1.0,68,0.00,,,0.00,Wunderground v.1.15,2013-12-29 10:50:00,
2013-12-29 05:55:00,42.8,33.3,29.02,WNW,292,1.0,3.0,69,0.00,,,0.00,Wunderground v.1.15,2013-12-29 10:55:00,
2013-12-29 06:00:00,42.8,33.0,29.02,West,274,1.0,12.0,68,0.00,,,0.00,Wunderground v.1.15,2013-12-29 11:00:00,
2013-12-29 06:10:00,42.8,33.0,29.01,WNW,286,2.0,2.0,68,0.00,,,0.00,Wunderground v.1.15,2013-12-29 11:10:00,
2013-12-29 06:15:00,42.8,33.0,29.01,WNW,299,1.0,12.0,68,0.00,,,0.00,Wunderground v.1.15,2013-12-29 11:15:00,
2013-12-29 06:20:00,42.8,32.6,29.01,WNW,293,2.0,2.0,67,0.00,,,0.00,Wunderground v.1.15,2013-12-29 11:20:00,
2013-12-29 06:25:00,42.8,32.6,29.01,WNW,289,2.0,12.0,67,0.00,,,0.00,Wunderground v.1.15,2013-12-29 11:25:00,
2013-12-29 06:30:00,42.8,32.6,29.02,NW,306,2.0,2.0,67,0.00,,,0.00,Wunderground v.1.15,2013-12-29 11:30:00,
2013-12-29 06:35:00,42.7,32.9,29.01,West,277,1.0,3.0,68,0.00,,,0.00,Wunderground v.1.15,2013-12-29 11:35:00,
2013-12-29 06:45:00,42.8,33.0,29.02,WNW,296,2.0,12.0,68,0.00,,,0.00,Wunderground v.1.15,2013-12-29 11:45:00,
2013-12-29 06:50:00,42.8,33.0,29.02,WNW,283,2.0,12.0,68,0.00,,,0.00,Wunderground v.1.15,2013-12-29 11:50:00,
2013-12-29 06:55:00,42.9,32.7,29.02,WNW,303,2.0,12.0,67,0.00,,,0.00,Wunderground v.1.15,2013-12-29 11:55:00,
2013-12-29 07:00:00,42.9,32.7,29.02,WNW,291,2.0,12.0,67,0.00,,,0.00,Wunderground v.1.15,2013-12-29 12:00:00,
2013-12-29 07:05:00,42.9,32.7,29.02,West,274,2.0,12.0,67,0.00,,,0.00,Wunderground v.1.15,2013-12-29 12:05:00,
2013-12-29 07:15:00,42.8,32.6,29.02,WNW,286,2.0,3.0,67,0.00,,,0.00,Wunderground v.1.15,2013-12-29 12:15:00,
2013-12-29 07:20:00,42.8,32.6,29.02,NW,312,1.0,12.0,67,0.00,,,0.00,Wunderground v.1.15,2013-12-29 12:20:00,
2013-12-29 07:25:00,42.8,32.6,29.02,WNW,293,1.0,12.0,67,0.00,,,0.00,Wunderground v.1.15,2013-12-29 12:25:00,
2013-12-29 07:30:00,42.8,32.2,29.01,WNW,296,2.0,12.0,66,0.00,,,0.00,Wunderground v.1.15,2013-12-29 12:30:00,
2013-12-29 07:35:00,42.8,32.2,29.01,WNW,293,2.0,12.0,66,0.00,,,0.00,Wunderground v.1.15,2013-12-29 12:35:00,
2013-12-29 07:40:00,42.8,32.2,29.01,WNW,297,2.0,12.0,66,0.00,,,0.00,Wunderground v.1.15,2013-12-29 12:40:00,
2013-12-29 07:50:00,42.9,32.3,29.00,NW,304,2.0,12.0,66,0.00,,,0.00,Wunderground v.1.15,2013-12-29 12:50:00,
2013-12-29 07:55:00,42.9,32.3,29.00,WNW,292,2.0,12.0,66,0.00,,,0.00,Wunderground v.1.15,2013-12-29 12:55:00,
2013-12-29 08:00:00,43.0,32.0,28.99,WNW,286,2.0,12.0,65,0.00,,,0.00,Wunderground v.1.15,2013-12-29 13:00:00,
2013-12-29 08:05:00,43.1,32.5,28.99,WNW,295,2.0,12.0,66,0.00,,,0.00,Wunderground v.1.15,2013-12-29 13:05:00,
2013-12-29 08:10:00,43.0,32.0,28.98,WNW,303,1.0,1.0,65,0.00,,,0.00,Wunderground v.1.15,2013-12-29 13:10:00,
2013-12-29 08:20:00,42.9,31.9,28.98,WNW,300,0.0,12.0,65,0.00,,,0.00,Wunderground v.1.15,2013-12-29 13:20:00,
2013-12-29 08:25:00,42.9,31.9,28.98,West,272,1.0,12.0,65,0.00,,,0.00,Wunderground v.1.15,2013-12-29 13:25:00,
2013-12-29 08:30:00,42.9,31.6,28.98,West,277,1.0,1.0,64,0.00,,,0.00,Wunderground v.1.15,2013-12-29 13:30:00,
2013-12-29 08:35:00,43.0,32.0,28.97,NW,311,1.0,2.0,65,0.00,,,0.00,Wunderground v.1.15,2013-12-29 13:35:00,
2013-12-29 08:40:00,43.1,31.7,28.98,NW,311,2.0,2.0,64,0.00,,,0.00,Wunderground v.1.15,2013-12-29 13:40:00,
2013-12-29 08:45:00,43.1,31.7,28.97,WNW,282,2.0,12.0,64,0.00,,,0.00,Wunderground v.1.15,2013-12-29 13:45:00,
2013-12-29 08:55:00,43.3,31.9,28.98,NW,319,1.0,12.0,64,0.00,,,0.00,Wunderground v.1.15,2013-12-29 13:55:00,
2013-12-29 09:00:00,43.4,32.4,28.98,WNW,290,1.0,12.0,65,0.00,,,0.00,Wunderground v.1.15,2013-12-29 14:00:00,
2013-12-29 09:05:00,43.4,31.6,28.98,WNW,284,1.0,12.0,63,0.00,,,0.00,Wunderground v.1.15,2013-12-29 14:05:00,
2013-12-29 09:10:00,43.6,32.2,28.99,WNW,291,2.0,2.0,64,0.00,,,0.00,Wunderground v.1.15,2013-12-29 14:10:00,
2013-12-29 09:15:00,43.7,31.5,28.99,West,277,3.0,6.0,62,0.00,,,0.00,Wunderground v.1.15,2013-12-29 14:15:00,
2013-12-29 09:25:00,44.0,31.8,28.99,NW,304,3.0,12.0,62,0.00,,,0.00,Wunderground v.1.15,2013-12-29 14:25:00,
2013-12-29 09:30:00,44.0,31.4,28.99,West,272,3.0,12.0,61,0.00,,,0.00,Wunderground v.1.15,2013-12-29 14:30:00,
2013-12-29 09:35:00,44.0,31.0,28.98,WNW,298,3.0,12.0,60,0.00,,,0.00,Wunderground v.1.15,2013-12-29 14:35:00,
2013-12-29 09:40:00,44.1,31.1,28.98,West,279,3.0,3.0,60,0.00,,,0.00,Wunderground v.1.15,2013-12-29 14:40:00,
2013-12-29 09:45:00,44.2,31.6,28.98,WNW,299,3.0,12.0,61,0.00,,,0.00,Wunderground v.1.15,2013-12-29 14:45:00,
2013-12-29 09:50:00,44.2,31.2,28.98,West,259,3.0,12.0,60,0.00,,,0.00,Wunderground v.1.15,2013-12-29 14:50:00,
2013-12-29 10:00:00,44.3,30.9,28.97,WNW,292,3.0,12.0,59,0.00,,,0.00,Wunderground v.1.15,2013-12-29 15:00:00,
2013-12-29 10:05:00,44.4,31.0,28.97,NW,325,4.0,12.0,59,0.00,,,0.00,Wunderground v.1.15,2013-12-29 15:05:00,
2013-12-29 10:10:00,44.5,31.1,28.96,West,269,4.0,12.0,59,0.00,,,0.00,Wunderground v.1.15,2013-12-29 15:10:00,
2013-12-29 10:15:00,44.5,31.1,28.96,WNW,296,3.0,12.0,59,0.00,,,0.00,Wunderground v.1.15,2013-12-29 15:15:00,
2013-12-29 10:20:00,44.5,31.1,28.96,WNW,296,2.0,2.0,59,0.00,,,0.00,Wunderground v.1.15,2013-12-29 15:20:00,
2013-12-29 10:25:00,44.6,30.7,28.95,West,275,2.0,12.0,58,0.00,,,0.00,Wunderground v.1.15,2013-12-29 15:25:00,
2013-12-29 10:30:00,44.6,30.7,28.95,West,272,2.0,2.0,58,0.00,,,0.00,Wunderground v.1.15,2013-12-29 15:30:00,
2013-12-29 10:35:00,44.7,30.8,28.95,WSW,257,1.0,12.0,58,0.00,,,0.00,Wunderground v.1.15,2013-12-29 15:35:00,
2013-12-29 10:40:00,44.7,30.8,28.95,WNW,292,1.0,12.0,58,0.00,,,0.00,Wunderground v.1.15,2013-12-29 15:40:00,
2013-12-29 10:45:00,44.9,30.6,28.94,NW,305,2.0,12.0,57,0.00,,,0.00,Wunderground v.1.15,2013-12-29 15:45:00,
2013-12-29 10:50:00,45.0,30.7,28.94,West,281,3.0,3.0,57,0.00,,,0.00,Wunderground v.1.15,2013-12-29 15:50:00,
2013-12-29 11:00:00,45.2,30.9,28.94,WNW,288,3.0,12.0,57,0.00,,,0.00,Wunderground v.1.15,2013-12-29 16:00:00,
2013-12-29 11:05:00,45.2,30.9,28.93,West,278,3.0,12.0,57,0.00,,,0.00,Wunderground v.1.15,2013-12-29 16:05:00,
2013-12-29 11:10:00,45.3,31.0,28.93,NW,312,3.0,3.0,57,0.00,,,0.00,Wunderground v.1.15,2013-12-29 16:10:00,
2013-12-29 11:15:00,45.3,31.0,28.92,West,277,2.0,12.0,57,0.00,,,0.00,Wunderground v.1.15,2013-12-29 16:15:00,
2013-12-29 11:20:00,45.3,30.5,28.91,WNW,289,3.0,12.0,56,0.00,,,0.00,Wunderground v.1.15,2013-12-29 16:20:00,
2013-12-29 11:25:00,45.4,30.6,28.90,SW,225,4.0,12.0,56,0.00,,,0.00,Wunderground v.1.15,2013-12-29 16:25:00,
2013-12-29 11:35:00,45.4,30.6,28.89,WNW,289,5.0,12.0,56,0.00,,,0.00,Wunderground v.1.15,2013-12-29 16:35:00,
2013-12-29 11:40:00,45.5,31.1,28.89,NW,313,3.0,3.0,57,0.00,,,0.00,Wunderground v.1.15,2013-12-29 16:40:00,
2013-12-29 11:45:00,45.6,30.8,28.88,NW,313,2.0,12.0,56,0.00,,,0.00,Wunderground v.1.15,2013-12-29 16:45:00,
2013-12-29 11:50:00,45.7,30.9,28.88,WNW,290,3.0,3.0,56,0.00,,,0.00,Wunderground v.1.15,2013-12-29 16:50:00,
2013-12-29 11:55:00,45.8,31.9,28.88,NW,322,2.0,5.0,58,0.00,,,0.00,Wunderground v.1.15,2013-12-29 16:55:00,
2013-12-29 12:05:00,45.8,31.9,28.87,WNW,294,2.0,12.0,58,0.00,,,0.00,Wunderground v.1.15,2013-12-29 17:05:00,
2013-12-29 12:10:00,45.8,31.9,28.88,WNW,288,3.0,12.0,58,0.00,,,0.00,Wunderground v.1.15,2013-12-29 17:10:00,
2013-12-29 12:15:00,45.8,31.9,28.87,WNW,291,2.0,12.0,58,0.00,,,0.00,Wunderground v.1.15,2013-12-29 17:15:00,
2013-12-29 12:20:00,45.9,32.4,28.88,NW,305,1.0,1.0,59,0.00,,,0.00,Wunderground v.1.15,2013-12-29 17:20:00,
2013-12-29 12:25:00,45.9,31.9,28.87,WNW,291,1.0,12.0,58,0.00,,,0.00,Wunderground v.1.15,2013-12-29 17:25:00,
2013-12-29 12:30:00,46.0,32.0,28.86,WNW,296,1.0,1.0,58,0.00,,,0.00,Wunderground v.1.15,2013-12-29 17:30:00,
2013-12-29 12:40:00,46.1,32.6,28.85,WNW,290,2.0,12.0,59,0.00,,,0.00,Wunderground v.1.15,2013-12-29 17:40:00,
2013-12-29 12:45:00,46.3,32.7,28.85,WSW,242,2.0,12.0,59,0.00,,,0.00,Wunderground v.1.15,2013-12-29 17:45:00,
2013-12-29 12:50:00,46.4,33.3,28.85,North,10,2.0,12.0,60,0.00,,,0.00,Wunderground v.1.15,2013-12-29 17:50:00,
2013-12-29 12:55:00,46.4,33.3,28.84,WNW,295,2.0,12.0,60,0.00,,,0.00,Wunderground v.1.15,2013-12-29 17:55:00,
2013-12-29 13:00:00,46.5,33.8,28.84,WNW,293,2.0,12.0,61,0.00,,,0.00,Wunderground v.1.15,2013-12-29 18:00:00,
2013-12-29 13:10:00,46.7,35.2,28.84,NW,304,2.0,12.0,64,0.00,,,0.00,Wunderground v.1.15,2013-12-29 18:10:00,
2013-12-29 13:15:00,46.7,35.6,28.84,WNW,292,2.0,12.0,65,0.00,,,0.00,Wunderground v.1.15,2013-12-29 18:15:00,
2013-12-29 13:20:00,46.7,36.3,28.84,NW,304,2.0,2.0,67,0.00,,,0.00,Wunderground v.1.15,2013-12-29 18:20:00,
2013-12-29 13:25:00,46.7,36.7,28.83,WNW,293,2.0,12.0,68,0.00,,,0.00,Wunderground v.1.15,2013-12-29 18:25:00,
2013-12-29 13:30:00,46.7,37.1,28.83,WNW,294,2.0,2.0,69,0.00,,,0.00,Wunderground v.1.15,2013-12-29 18:30:00,
2013-12-29 13:35:00,46.7,37.8,28.83,WNW,290,2.0,12.0,71,0.00,,,0.00,Wunderground v.1.15,2013-12-29 18:35:00,
2013-12-29 13:45:00,46.4,37.9,28.83,NW,308,3.0,12.0,72,0.00,,,0.00,Wunderground v.1.15,2013-12-29 18:45:00,
2013-12-29 13:50:00,46.3,38.1,28.83,NW,309,3.0,12.0,73,0.00,,,0.00,Wunderground v.1.15,2013-12-29 18:50:00,
2013-12-29 13:55:00,46.1,38.3,28.83,WNW,295,3.0,12.0,74,0.00,,,0.00,Wunderground v.1.15,2013-12-29 18:55:00,
2013-12-29 14:00:00,45.9,38.1,28.83,NNW,329,3.0,12.0,74,0.00,,,0.00,Wunderground v.1.15,2013-12-29 19:00:00,
2013-12-29 14:05:00,45.8,38.3,28.83,NW,313,3.0,12.0,75,0.00,,,0.00,Wunderground v.1.15,2013-12-29 19:05:00,
2013-12-29 14:15:00,45.4,38.3,28.83,West,281,4.0,6.0,76,0.00,,,0.00,Wunderground v.1.15,2013-12-29 19:15:00,
2013-12-29 14:20:00,45.2,38.4,28.82,WNW,294,3.0,12.0,77,0.00,,,0.00,Wunderground v.1.15,2013-12-29 19:20:00,
2013-12-29 14:25:00,45.1,38.6,28.82,WNW,293,3.0,12.0,78,0.00,,,0.00,Wunderground v.1.15,2013-12-29 19:25:00,
2013-12-29 14:30:00,44.9,38.5,28.82,NW,306,3.0,3.0,78,0.00,,,0.00,Wunderground v.1.15,2013-12-29 19:30:00,
2013-12-29 14:35:00,44.8,38.7,28.83,WNW,292,2.0,4.0,79,0.00,,,0.00,Wunderground v.1.15,2013-12-29 19:35:00,
2013-12-29 14:40:00,44.7,38.9,28.82,West,281,3.0,12.0,80,0.00,,,0.00,Wunderground v.1.15,2013-12-29 19:40:00,
2013-12-29 14:45:00,44.6,38.8,28.82,West,276,3.0,12.0,80,0.00,,,0.00,Wunderground v.1.15,2013-12-29 19:45:00,
2013-12-29 14:50:00,44.5,39.0,28.82,NW,311,3.0,12.0,81,0.00,,,0.00,Wunderground v.1.15,2013-12-29 19:50:00,
2013-12-29 14:55:00,44.4,39.2,28.82,WNW,290,3.0,12.0,82,0.00,,,0.00,Wunderground v.1.15,2013-12-29 19:55:00,
2013-12-29 15:05:00,44.2,39.4,28.82,WNW,286,3.0,12.0,83,0.00,,,0.00,Wunderground v.1.15,2013-12-29 20:05:00,
2013-12-29 15:10:00,44.1,39.3,28.82,WNW,296,2.0,12.0,83,0.00,,,0.00,Wunderground v.1.15,2013-12-29 20:10:00,
2013-12-29 15:15:00,43.9,39.1,28.82,WNW,291,3.0,12.0,83,0.00,,,0.00,Wunderground v.1.15,2013-12-29 20:15:00,
2013-12-29 15:20:00,43.8,39.3,28.81,NW,305,2.0,12.0,84,0.00,,,0.00,Wunderground v.1.15,2013-12-29 20:20:00,
2013-12-29 15:25:00,43.7,39.2,28.81,WNW,298,2.0,12.0,84,0.00,,,0.00,Wunderground v.1.15,2013-12-29 20:25:00,
2013-12-29 15:30:00,43.6,39.1,28.81,NW,305,1.0,12.0,84,0.00,,,0.00,Wunderground v.1.15,2013-12-29 20:30:00,
2013-12-29 15:35:00,43.6,39.4,28.81,NW,321,1.0,12.0,85,0.00,,,0.00,Wunderground v.1.15,2013-12-29 20:35:00,
2013-12-29 15:40:00,43.5,39.3,28.81,WNW,294,1.0,1.0,85,0.00,,,0.00,Wunderground v.1.15,2013-12-29 20:40:00,
2013-12-29 15:50:00,43.4,39.5,28.80,WNW,286,1.0,1.0,86,0.00,,,0.00,Wunderground v.1.15,2013-12-29 20:50:00,
2013-12-29 15:55:00,43.3,39.4,28.80,WNW,284,1.0,12.0,86,0.00,,,0.00,Wunderground v.1.15,2013-12-29 20:55:00,
2013-12-29 16:00:00,43.2,39.3,28.80,WNW,290,0.0,12.0,86,0.00,,,0.00,Wunderground v.1.15,2013-12-29 21:00:00,
2013-12-29 16:05:00,43.1,39.2,28.80,WNW,295,0.0,12.0,86,0.00,,,0.00,Wunderground v.1.15,2013-12-29 21:05:00,
2013-12-29 16:10:00,43.0,39.1,28.79,WNW,301,0.0,12.0,86,0.00,,,0.00,Wunderground v.1.15,2013-12-29 21:10:00,
2013-12-29 16:15:00,43.0,39.4,28.79,NW,304,0.0,12.0,87,0.00,,,0.00,Wunderground v.1.15,2013-12-29 21:15:00,
2013-12-29 16:25:00,42.8,39.2,28.79,WNW,298,0.0,12.0,87,0.00,,,0.00,Wunderground v.1.15,2013-12-29 21:25:00,
2013-12-29 16:30:00,42.8,39.2,28.79,WNW,296,0.0,12.0,87,0.00,,,0.00,Wunderground v.1.15,2013-12-29 21:30:00,
2013-12-29 16:35:00,42.7,39.1,28.79,WNW,296,0.0,12.0,87,0.00,,,0.00,Wunderground v.1.15,2013-12-29 21:35:00,
2013-12-29 16:40:00,42.7,39.1,28.79,WNW,300,0.0,12.0,87,0.00,,,0.00,Wunderground v.1.15,2013-12-29 21:40:00,
2013-12-29 16:45:00,42.6,39.0,28.80,WNW,295,0.0,12.0,87,0.00,,,0.00,Wunderground v.1.15,2013-12-29 21:45:00,
2013-12-29 16:55:00,42.5,39.2,28.79,WNW,293,0.0,12.0,88,0.00,,,0.00,Wunderground v.1.15,2013-12-29 21:55:00,
2013-12-29 17:00:00,42.4,39.1,28.79,WNW,292,0.0,12.0,88,0.00,,,0.00,Wunderground v.1.15,2013-12-29 22:00:00,
2013-12-29 17:05:00,42.3,39.0,28.80,WNW,288,0.0,12.0,88,0.00,,,0.00,Wunderground v.1.15,2013-12-29 22:05:00,
2013-12-29 17:10:00,42.3,39.0,28.80,WNW,292,0.0,12.0,88,0.00,,,0.00,Wunderground v.1.15,2013-12-29 22:10:00,
2013-12-29 17:15:00,42.2,38.9,28.80,WNW,298,0.0,12.0,88,0.00,,,0.00,Wunderground v.1.15,2013-12-29 22:15:00,
2013-12-29 17:20:00,42.2,38.9,28.80,WNW,299,0.0,12.0,88,0.00,,,0.00,Wunderground v.1.15,2013-12-29 22:20:00,
2013-12-29 17:30:00,42.0,38.7,28.80,WNW,302,0.0,12.0,88,0.00,,,0.00,Wunderground v.1.15,2013-12-29 22:30:00,
2013-12-29 17:35:00,41.9,38.9,28.80,NNW,337,0.0,12.0,89,0.00,,,0.00,Wunderground v.1.15,2013-12-29 22:35:00,
2013-12-29 17:40:00,41.8,38.8,28.80,NW,323,0.0,12.0,89,0.00,,,0.00,Wunderground v.1.15,2013-12-29 22:40:00,
2013-12-29 17:45:00,41.7,38.7,28.80,NNW,333,0.0,12.0,89,0.00,,,0.00,Wunderground v.1.15,2013-12-29 22:45:00,
2013-12-29 17:50:00,41.6,38.6,28.80,NW,306,0.0,12.0,89,0.00,,,0.00,Wunderground v.1.15,2013-12-29 22:50:00,
2013-12-29 18:00:00,41.5,38.5,28.81,NW,319,1.0,12.0,89,0.00,,,0.00,Wunderground v.1.15,2013-12-29 23:00:00,
2013-12-29 18:05:00,41.4,38.4,28.81,North,10,1.0,12.0,89,0.00,,,0.00,Wunderground v.1.15,2013-12-29 23:05:00,
2013-12-29 18:10:00,41.2,38.2,28.81,WNW,302,2.0,12.0,89,0.00,,,0.00,Wunderground v.1.15,2013-12-29 23:10:00,
2013-12-29 18:15:00,41.0,37.7,28.80,NW,319,2.0,12.0,88,0.00,,,0.00,Wunderground v.1.15,2013-12-29 23:15:00,
2013-12-29 18:20:00,40.7,37.1,28.81,NW,311,2.0,2.0,87,0.00,,,0.00,Wunderground v.1.15,2013-12-29 23:20:00,
2013-12-29 18:25:00,40.6,36.7,28.81,NW,307,2.0,12.0,86,0.00,,,0.00,Wunderground v.1.15,2013-12-29 23:25:00,
2013-12-29 18:35:00,40.3,36.1,28.81,NW,304,1.0,12.0,85,0.00,,,0.00,Wunderground v.1.15,2013-12-29 23:35:00,
2013-12-29 18:40:00,40.1,36.0,28.81,NNW,346,1.0,1.0,85,0.00,,,0.00,Wunderground v.1.15,2013-12-29 23:40:00,
2013-12-29 18:45:00,39.8,35.7,28.82,North,355,1.0,12.0,85,0.00,,,0.00,Wunderground v.1.15,2013-12-29 23:45:00,
2013-12-29 18:50:00,39.6,35.5,28.82,NW,304,2.0,12.0,85,0.00,,,0.00,Wunderground v.1.15,2013-12-29 23:50:00,
2013-12-29 18:55:00,39.3,35.2,28.82,NNW,342,3.0,12.0,85,0.00,,,0.00,Wunderground v.1.15,2013-12-29 23:55:00,
2013-12-29 19:05:00,38.9,34.8,28.82,North,355,2.0,12.0,85,0.00,,,0.00,Wunderground v.1.15,2013-12-30 00:05:00,
2013-12-29 19:10:00,38.8,34.4,28.82,NNW,342,3.0,12.0,84,0.00,,,0.00,Wunderground v.1.15,2013-12-30 00:10:00,
2013-12-29 19:15:00,38.7,34.3,28.82,WNW,294,2.0,12.0,84,0.00,,,0.00,Wunderground v.1.15,2013-12-30 00:15:00,
2013-12-29 19:20:00,38.6,34.2,28.83,NW,313,3.0,3.0,84,0.00,,,0.00,Wunderground v.1.15,2013-12-30 00:20:00,
2013-12-29 19:25:00,38.4,34.0,28.83,NW,309,3.0,12.0,84,0.00,,,0.00,Wunderground v.1.15,2013-12-30 00:25:00,
2013-12-29 19:30:00,38.2,33.8,28.82,NNW,334,2.0,12.0,84,0.00,,,0.00,Wunderground v.1.15,2013-12-30 00:30:00,
2013-12-29 19:40:00,37.9,33.5,28.83,NW,316,2.0,12.0,84,0.00,,,0.00,Wunderground v.1.15,2013-12-30 00:40:00,
2013-12-29 19:45:00,37.8,33.4,28.83,NNW,330,3.0,12.0,84,0.00,,,0.00,Wunderground v.1.15,2013-12-30 00:45:00,
2013-12-29 19:50:00,37.7,33.3,28.83,NNW,336,2.0,2.0,84,0.00,,,0.00,Wunderground v.1.15,2013-12-30 00:50:00,
2013-12-29 19:55:00,37.5,33.1,28.83,NNW,342,2.0,12.0,84,0.00,,,0.00,Wunderground v.1.15,2013-12-30 00:55:00,
2013-12-29 20:00:00,37.4,33.0,28.84,NNW,334,3.0,12.0,84,0.00,,,0.00,Wunderground v.1.15,2013-12-30 01:00:00,
2013-12-29 20:10:00,37.1,33.0,28.84,WNW,294,2.0,2.0,85,0.00,,,0.00,Wunderground v.1.15,2013-12-30 01:10:00,
2013-12-29 20:15:00,37.0,32.9,28.84,NNW,342,2.0,3.0,85,0.00,,,0.00,Wunderground v.1.15,2013-12-30 01:15:00,
2013-12-29 20:20:00,36.9,32.8,28.84,NW,313,1.0,1.0,85,0.00,,,0.00,Wunderground v.1.15,2013-12-30 01:20:00,
2013-12-29 20:25:00,37.0,33.2,28.85,NNW,348,1.0,3.0,86,0.00,,,0.00,Wunderground v.1.15,2013-12-30 01:25:00,
2013-12-29 20:30:00,37.0,33.2,28.84,NW,322,2.0,12.0,86,0.00,,,0.00,Wunderground v.1.15,2013-12-30 01:30:00,
2013-12-29 20:35:00,37.1,33.3,28.84,WNW,298,2.0,12.0,86,0.00,,,0.00,Wunderground v.1.15,2013-12-30 01:35:00,
2013-12-29 20:45:00,37.3,33.5,28.85,NW,322,2.0,12.0,86,0.00,,,0.00,Wunderground v.1.15,2013-12-30 01:45:00,
2013-12-29 20:50:00,37.4,33.6,28.85,WNW,282,2.0,12.0,86,0.00,,,0.00,Wunderground v.1.15,2013-12-30 01:50:00,
2013-12-29 20:55:00,37.5,33.7,28.85,NNW,336,2.0,12.0,86,0.00,,,0.00,Wunderground v.1.15,2013-12-30 01:55:00,
2013-12-29 21:00:00,37.5,33.7,28.84,NW,305,2.0,2.0,86,0.00,,,0.00,Wunderground v.1.15,2013-12-30 02:00:00,
2013-12-29 21:05:00,37.5,33.7,28.85,West,277,2.0,5.0,86,0.00,,,0.00,Wunderground v.1.15,2013-12-30 02:05:00,
2013-12-29 21:15:00,37.6,33.8,28.86,NW,311,1.0,12.0,86,0.00,,,0.00,Wunderground v.1.15,2013-12-30 02:15:00,
2013-12-29 21:20:00,37.6,33.8,28.86,NNW,339,2.0,2.0,86,0.00,,,0.00,Wunderground v.1.15,2013-12-30 02:20:00,
2013-12-29 21:25:00,37.7,33.9,28.86,North,349,2.0,7.0,86,0.00,,,0.00,Wunderground v.1.15,2013-12-30 02:25:00,
2013-12-29 21:30:00,37.6,33.8,28.86,NW,319,3.0,12.0,86,0.00,,,0.00,Wunderground v.1.15,2013-12-30 02:30:00,
2013-12-29 21:35:00,37.6,33.8,28.86,North,355,4.0,12.0,86,0.00,,,0.00,Wunderground v.1.15,2013-12-30 02:35:00,
2013-12-29 21:40:00,37.6,33.8,28.87,NNW,342,4.0,12.0,86,0.00,,,0.00,Wunderground v.1.15,2013-12-30 02:40:00,
2013-12-29 21:49:00,37.5,33.7,28.88,NNE,19,5.0,12.0,86,0.00,,,0.00,Wunderground v.1.15,2013-12-30 02:49:00,
2013-12-29 21:54:00,36.9,32.8,28.88,NE,41,7.0,12.0,85,0.00,,,0.00,Wunderground v.1.15,2013-12-30 02:54:00,
2013-12-29 21:59:00,34.7,30.7,28.89,NE,37,12.0,13.0,85,0.00,,,0.00,Wunderground v.1.15,2013-12-30 02:59:00,
2013-12-29 22:04:00,32.9,29.5,28.89,NNE,20,13.0,13.0,87,0.00,,,0.00,Wunderground v.1.15,2013-12-30 03:04:00,
2013-12-29 22:09:00,31.9,30.6,28.90,ENE,65,12.0,12.0,95,0.00,,,0.00,Wunderground v.1.15,2013-12-30 03:09:00,
2013-12-29 22:15:00,31.3,28.7,28.90,NE,44,11.0,12.0,90,0.00,,,0.00,Wunderground v.1.15,2013-12-30 03:15:00,
2013-12-29 22:20:00,30.9,28.3,28.91,NE,50,10.0,15.0,90,0.00,,,0.00,Wunderground v.1.15,2013-12-30 03:20:00,
2013-12-29 22:25:00,30.4,28.1,28.91,NE,36,12.0,15.0,91,0.00,,,0.00,Wunderground v.1.15,2013-12-30 03:25:00,
2013-12-29 22:30:00,30.1,27.8,28.91,NE,38,14.0,14.0,91,0.00,,,0.00,Wunderground v.1.15,2013-12-30 03:30:00,
2013-12-29 22:35:00,29.8,27.5,28.92,NNE,32,14.0,17.0,91,0.00,,,0.00,Wunderground v.1.15,2013-12-30 03:35:00,
2013-12-29 22:44:00,29.0,27.0,28.92,NE,37,12.0,17.0,92,0.00,,,0.00,Wunderground v.1.15,2013-12-30 03:44:00,
2013-12-29 22:50:00,28.5,26.5,28.93,ENE,63,12.0,12.0,92,0.00,,,0.00,Wunderground v.1.15,2013-12-30 03:50:00,
2013-12-29 22:55:00,28.0,26.0,28.92,NE,34,11.0,12.0,92,0.00,,,0.00,Wunderground v.1.15,2013-12-30 03:55:00,
2013-12-29 23:00:00,27.7,25.9,28.93,NE,44,11.0,14.0,93,0.00,,,0.00,Wunderground v.1.15,2013-12-30 04:00:00,
2013-12-29 23:05:00,27.6,25.8,28.93,NNE,24,11.0,14.0,93,0.00,,,0.00,Wunderground v.1.15,2013-12-30 04:05:00,
2013-12-29 23:10:00,27.5,27.5,28.94,NE,34,9.0,9.0,100,0.00,,,0.00,Wunderground v.1.15,2013-12-30 04:10:00,
2013-12-29 23:15:00,27.4,25.6,28.94,NNE,28,9.0,12.0,93,0.00,,,0.00,Wunderground v.1.15,2013-12-30 04:15:00,
2013-12-29 23:25:00,27.4,25.6,28.94,NNE,32,9.0,12.0,93,0.00,,,0.00,Wunderground v.1.15,2013-12-30 04:25:00,
2013-12-29 23:30:00,27.4,25.6,28.94,NNE,30,10.0,12.0,93,0.00,,,0.00,Wunderground v.1.15,2013-12-30 04:30:00,
2013-12-29 23:35:00,27.3,25.5,28.95,NE,34,11.0,12.0,93,0.00,,,0.00,Wunderground v.1.15,2013-12-30 04:35:00,
2013-12-29 23:40:00,27.4,25.6,28.95,NE,38,10.0,13.0,93,0.00,,,0.00,Wunderground v.1.15,2013-12-30 04:40:00,
2013-12-29 23:45:00,27.3,25.3,28.95,NNE,30,10.0,16.0,92,0.00,,,0.00,Wunderground v.1.15,2013-12-30 04:45:00,
2013-12-29 23:55:00,27.4,25.4,28.95,NE,46,11.0,12.0,92,0.00,,,0.00,Wunderground v.1.15,2013-12-30 04:55:00,